| time (UTC) | temp F | wind direction | speed MPH | gust MPH | rain 1hr in | rain 24hr in | rain mn in | humidity % | barometer mb |
| 20260504070244 | 51 | 181 | 0.0 | 0.0 | 0.00 | 0.00 | 0.00 | 60 | 1012.1 |
| 20260504050616 | 46 | 4 | 0.0 | 0.0 | 0.00 | 0.00 | 0.00 | 69 | 1012.2 |
| 20260504050108 | 46 | 4 | 0.0 | 0.0 | 0.00 | 0.00 | 0.00 | 69 | 1012.2 |
| 20260504045602 | 46 | 4 | 0.0 | 0.0 | 0.00 | 0.00 | 0.00 | 69 | 1012.2 |
| 20260504045057 | 46 | 4 | 0.0 | 0.0 | 0.00 | 0.00 | 0.00 | 69 | 1012.1 |
| 20260504044551 | 46 | 4 | 0.0 | 0.0 | 0.00 | 0.00 | 0.00 | 69 | 1012.2 |
| 20260504044045 | 46 | 4 | 0.0 | 0.0 | 0.00 | 0.00 | 0.00 | 69 | 1012.2 |
| 20260504043758 | 46 | 4 | 0.0 | 0.0 | 0.00 | 0.00 | 0.00 | 69 | 1012.1 |
| 20260504043033 | 46 | 4 | 0.0 | 0.0 | 0.00 | 0.00 | 0.00 | 70 | 1012.1 |
| 20260504042527 | 46 | 4 | 0.0 | 0.0 | 0.00 | 0.00 | 0.00 | 70 | 1012.2 |
| 20260504042020 | 46 | 4 | 0.0 | 0.0 | 0.00 | 0.00 | 0.00 | 72 | 1012.1 |
| 20260504041514 | 46 | 4 | 0.0 | 0.0 | 0.00 | 0.00 | 0.00 | 72 | 1012.1 |
| 20260504041008 | 46 | 4 | 0.0 | 0.0 | 0.00 | 0.00 | 0.00 | 73 | 1012.1 |
| 20260504040721 | 46 | 4 | 0.0 | 0.0 | 0.00 | 0.00 | 0.00 | 72 | 1012.1 |
| 20260504040001 | 46 | 4 | 0.0 | 0.0 | 0.00 | 0.00 | 0.00 | 72 | 1012.1 |
| 20260504035458 | 46 | 4 | 0.0 | 0.0 | 0.00 | 0.00 | 0.00 | 71 | 1012.0 |
| 20260504034957 | 46 | 4 | 0.0 | 0.0 | 0.00 | 0.00 | 0.00 | 71 | 1012.0 |
| 20260504034453 | 46 | 4 | 0.0 | 0.0 | 0.00 | 0.00 | 0.00 | 71 | 1012.0 |
| 20260504034217 | 46 | 3 | 0.0 | 0.0 | 0.00 | 0.00 | 0.00 | 71 | 1012.1 |
| 20260504033454 | 46 | 4 | 0.0 | 0.0 | 0.00 | 0.00 | 0.00 | 70 | 1012.1 |
| 20260504033222 | 46 | 4 | 0.0 | 0.0 | 0.00 | 0.00 | 0.00 | 71 | 1012.1 |
| 20260504032944 | 46 | 4 | 0.0 | 0.0 | 0.00 | 0.00 | 0.00 | 70 | 1012.1 |
| 20260504031953 | 46 | 4 | 0.0 | 0.0 | 0.00 | 0.00 | 0.00 | 70 | 1012.1 |
| 20260504031455 | 46 | 4 | 0.0 | 0.0 | 0.00 | 0.00 | 0.00 | 69 | 1012.1 |
| 20260504030952 | 46 | 4 | 0.0 | 0.0 | 0.00 | 0.00 | 0.00 | 69 | 1012.0 |
| 20260504030452 | 46 | 4 | 0.0 | 0.0 | 0.00 | 0.00 | 0.00 | 69 | 1011.9 |
| 20260504025952 | 46 | 4 | 0.0 | 0.0 | 0.00 | 0.00 | 0.00 | 69 | 1012.0 |
| 20260504025453 | 46 | 4 | 0.0 | 0.0 | 0.00 | 0.00 | 0.00 | 68 | 1012.1 |
| 20260504024949 | 46 | 4 | 0.0 | 0.0 | 0.00 | 0.00 | 0.00 | 68 | 1012.0 |
| 20260504024448 | 46 | 4 | 0.0 | 0.0 | 0.00 | 0.00 | 0.00 | 67 | 1012.0 |
| 20260504023948 | 46 | 4 | 0.0 | 0.0 | 0.00 | 0.00 | 0.00 | 67 | 1012.0 |
| 20260504023447 | 47 | 4 | 0.0 | 0.0 | 0.00 | 0.00 | 0.00 | 66 | 1012.1 |
| 20260504023210 | 47 | 4 | 0.0 | 0.0 | 0.00 | 0.00 | 0.00 | 65 | 1012.1 |
| 20260504022448 | 47 | 4 | 0.0 | 0.0 | 0.00 | 0.00 | 0.00 | 65 | 1012.1 |
| 20260504021948 | 47 | 4 | 0.0 | 0.0 | 0.00 | 0.00 | 0.00 | 65 | 1012.0 |
| 20260504021447 | 48 | 4 | 0.0 | 0.0 | 0.00 | 0.00 | 0.00 | 64 | 1012.0 |
| 20260504020949 | 48 | 4 | 0.0 | 0.0 | 0.00 | 0.00 | 0.00 | 63 | 1011.9 |
| 20260504020447 | 48 | 4 | 0.0 | 0.0 | 0.00 | 0.00 | 0.00 | 62 | 1011.9 |
| 20260504020210 | 48 | 3 | 0.0 | 0.0 | 0.00 | 0.00 | 0.00 | 61 | 1011.9 |
| 20260504015448 | 49 | 4 | 0.0 | 0.0 | 0.00 | 0.00 | 0.00 | 61 | 1011.9 |
| 20260504014949 | 49 | 4 | 0.0 | 0.0 | 0.00 | 0.00 | 0.00 | 61 | 1011.9 |
| 20260504014710 | 49 | 4 | 0.0 | 0.0 | 0.00 | 0.00 | 0.00 | 60 | 1011.8 |
| 20260504013948 | 49 | 4 | 0.0 | 0.0 | 0.00 | 0.00 | 0.00 | 59 | 1011.9 |
| 20260504013714 | 50 | 4 | 0.0 | 0.0 | 0.00 | 0.00 | 0.00 | 59 | 1011.9 |
| 20260504012952 | 50 | 4 | 0.0 | 0.0 | 0.00 | 0.00 | 0.00 | 57 | 1011.9 |
| 20260504012449 | 50 | 4 | 0.0 | 0.0 | 0.00 | 0.00 | 0.00 | 56 | 1011.8 |
| 20260504011940 | 51 | 4 | 0.0 | 0.0 | 0.00 | 0.00 | 0.00 | 55 | 1011.8 |
| 20260504011436 | 51 | 4 | 0.0 | 0.0 | 0.00 | 0.00 | 0.00 | 55 | 1011.7 |
| 20260504010931 | 51 | 4 | 0.0 | 0.0 | 0.00 | 0.00 | 0.00 | 55 | 1011.7 |
| 20260504010425 | 52 | 4 | 0.0 | 0.0 | 0.00 | 0.00 | 0.00 | 53 | 1011.7 |
| 20260504005919 | 52 | 4 | 0.0 | 0.0 | 0.00 | 0.00 | 0.00 | 52 | 1011.7 |
| 20260504005413 | 53 | 3 | 0.0 | 0.0 | 0.00 | 0.00 | 0.00 | 51 | 1011.8 |
| 20260504005134 | 53 | 4 | 0.0 | 0.0 | 0.00 | 0.00 | 0.00 | 51 | 1011.8 |
| 20260504004401 | 53 | 4 | 0.0 | 0.0 | 0.00 | 0.00 | 0.00 | 50 | 1011.7 |
| 20260504003855 | 54 | 4 | 0.0 | 0.0 | 0.00 | 0.00 | 0.00 | 49 | 1011.7 |
| 20260504003349 | 54 | 4 | 0.0 | 0.0 | 0.00 | 0.00 | 0.00 | 48 | 1011.6 |
| 20260504002843 | 55 | 4 | 0.0 | 0.0 | 0.00 | 0.00 | 0.00 | 47 | 1011.6 |
| 20260504002337 | 56 | 4 | 0.0 | 0.0 | 0.00 | 0.00 | 0.00 | 46 | 1011.5 |
| 20260504002057 | 56 | 3 | 0.0 | 0.0 | 0.00 | 0.00 | 0.00 | 45 | 1011.6 |
| 20260504001326 | 57 | 4 | 0.0 | 0.0 | 0.00 | 0.00 | 0.00 | 43 | 1011.5 |
| 20260504000818 | 57 | 4 | 0.0 | 0.0 | 0.00 | 0.00 | 0.00 | 43 | 1011.4 |
| 20260504000313 | 58 | 4 | 0.0 | 0.0 | 0.00 | 0.00 | 0.00 | 42 | 1011.4 |
| 20260504000025 | 59 | 4 | 0.0 | 0.0 | 0.00 | 0.00 | 0.00 | 41 | 1011.3 |
| 20260503235300 | 60 | 4 | 0.0 | 0.0 | 0.00 | 0.00 | 0.00 | 38 | 1011.3 |
| 20260503234755 | 60 | 4 | 0.0 | 0.0 | 0.00 | 0.00 | 0.00 | 39 | 1011.2 |
| 20260503234249 | 60 | 4 | 0.0 | 1.0 | 0.00 | 0.00 | 0.00 | 38 | 1011.2 |
| 20260503233742 | 61 | 4 | 0.0 | 1.0 | 0.00 | 0.00 | 0.00 | 36 | 1011.2 |
| 20260503233236 | 61 | 345 | 0.0 | 1.0 | 0.00 | 0.00 | 0.00 | 36 | 1011.1 |
| 20260503232730 | 62 | 345 | 0.0 | 1.0 | 0.00 | 0.00 | 0.00 | 36 | 1011.2 |
| 20260503232226 | 62 | 124 | 0.0 | 1.0 | 0.00 | 0.00 | 0.00 | 35 | 1011.1 |
| 20260503231719 | 62 | 205 | 0.0 | 3.0 | 0.00 | 0.00 | 0.00 | 34 | 1011.1 |
| 20260503231704 | 62 | 153 | 0.0 | 3.0 | 0.00 | 0.00 | 0.00 | 33 | 1011.0 |
| 20260503230707 | 63 | 217 | 0.0 | 2.0 | 0.00 | 0.00 | 0.00 | 34 | 1011.0 |
| 20260503230201 | 63 | 216 | 0.0 | 2.0 | 0.00 | 0.00 | 0.00 | 32 | 1011.1 |
| 20260503225655 | 63 | 111 | 0.0 | 4.0 | 0.00 | 0.00 | 0.00 | 32 | 1011.1 |
| 20260503225149 | 63 | 193 | 1.0 | 4.0 | 0.00 | 0.00 | 0.00 | 32 | 1011.1 |
| 20260503224643 | 63 | 350 | 0.0 | 4.0 | 0.00 | 0.00 | 0.00 | 32 | 1011.2 |
| 20260503224403 | 64 | 211 | 1.0 | 6.0 | 0.00 | 0.00 | 0.00 | 31 | 1011.1 |
| 20260503223858 | 64 | 98 | 1.0 | 6.0 | 0.00 | 0.00 | 0.00 | 31 | 1011.2 |
| 20260503223125 | 64 | 83 | 0.0 | 5.0 | 0.00 | 0.00 | 0.00 | 30 | 1011.2 |
| 20260503222619 | 64 | 227 | 0.0 | 3.0 | 0.00 | 0.00 | 0.00 | 30 | 1011.1 |
| 20260503222113 | 65 | 205 | 1.0 | 3.0 | 0.00 | 0.00 | 0.00 | 30 | 1011.2 |
| 20260503221606 | 65 | 203 | 1.0 | 5.0 | 0.00 | 0.00 | 0.00 | 30 | 1011.3 |
| 20260503221101 | 65 | 202 | 1.0 | 5.0 | 0.00 | 0.00 | 0.00 | 30 | 1011.3 |
| 20260503220554 | 66 | 200 | 1.0 | 4.0 | 0.00 | 0.00 | 0.00 | 28 | 1011.3 |
| 20260503220049 | 66 | 8 | 0.0 | 1.0 | 0.00 | 0.00 | 0.00 | 28 | 1011.4 |
| 20260503220029 | 66 | 164 | 0.0 | 4.0 | 0.00 | 0.00 | 0.00 | 30 | 1011.4 |
| 20260503215304 | 66 | 169 | 1.0 | 6.0 | 0.00 | 0.00 | 0.00 | 28 | 1011.4 |
| 20260503214731 | 68 | 231 | 1.0 | 6.0 | 0.00 | 0.00 | 0.00 | 27 | 1011.5 |
| 20260503214618 | 67 | 207 | 1.0 | 6.0 | 0.00 | 0.00 | 0.00 | 27 | 1011.4 |
| 20260503213519 | 69 | 118 | 1.0 | 6.0 | 0.00 | 0.00 | 0.00 | 27 | 1011.4 |
| 20260503213013 | 69 | 219 | 0.0 | 2.0 | 0.00 | 0.00 | 0.00 | 27 | 1011.3 |
| 20260503212507 | 68 | 204 | 1.0 | 2.0 | 0.00 | 0.00 | 0.00 | 27 | 1011.3 |
| 20260503212002 | 68 | 230 | 1.0 | 7.0 | 0.00 | 0.00 | 0.00 | 26 | 1011.3 |
| 20260503211455 | 68 | 18 | 1.0 | 7.0 | 0.00 | 0.00 | 0.00 | 28 | 1011.3 |
| 20260503210949 | 68 | 156 | 1.0 | 7.0 | 0.00 | 0.00 | 0.00 | 27 | 1011.3 |
| 20260503210442 | 68 | 160 | 0.0 | 3.0 | 0.00 | 0.00 | 0.00 | 27 | 1011.2 |
| 20260503205937 | 67 | 208 | 1.0 | 5.0 | 0.00 | 0.00 | 0.00 | 28 | 1011.3 |
| 20260503205430 | 67 | 279 | 1.0 | 5.0 | 0.00 | 0.00 | 0.00 | 28 | 1011.3 |
| 20260503204925 | 67 | 30 | 1.0 | 5.0 | 0.00 | 0.00 | 0.00 | 28 | 1011.4 |
| 20260503204643 | 67 | 191 | 1.0 | 5.0 | 0.00 | 0.00 | 0.00 | 29 | 1011.3 |
| 20260503203913 | 67 | 231 | 1.0 | 6.0 | 0.00 | 0.00 | 0.00 | 29 | 1011.2 |
| 20260503203406 | 67 | 105 | 1.0 | 6.0 | 0.00 | 0.00 | 0.00 | 28 | 1011.2 |
| 20260503203118 | 67 | 151 | 1.0 | 8.0 | 0.00 | 0.00 | 0.00 | 29 | 1011.4 |
| 20260503202355 | 67 | 80 | 1.0 | 8.0 | 0.00 | 0.00 | 0.00 | 29 | 1011.4 |
| 20260503201849 | 67 | 69 | 1.0 | 9.0 | 0.00 | 0.00 | 0.00 | 28 | 1011.5 |
| 20260503201342 | 66 | 34 | 1.0 | 9.0 | 0.00 | 0.00 | 0.00 | 30 | 1011.5 |
| 20260503200837 | 66 | 73 | 1.0 | 5.0 | 0.00 | 0.00 | 0.00 | 30 | 1011.4 |
| 20260503200331 | 67 | 206 | 1.0 | 5.0 | 0.00 | 0.00 | 0.00 | 28 | 1011.7 |
| 20260503195824 | 67 | 25 | 2.0 | 6.0 | 0.00 | 0.00 | 0.00 | 28 | 1011.8 |
| 20260503195319 | 67 | 24 | 2.0 | 6.0 | 0.00 | 0.00 | 0.00 | 28 | 1011.8 |
| 20260503194813 | 67 | 157 | 1.0 | 6.0 | 0.00 | 0.00 | 0.00 | 29 | 1011.8 |
| 20260503194307 | 67 | 48 | 1.0 | 5.0 | 0.00 | 0.00 | 0.00 | 28 | 1011.8 |
| 20260503193801 | 67 | 30 | 1.0 | 5.0 | 0.00 | 0.00 | 0.00 | 29 | 1012.1 |
| 20260503193738 | 67 | 201 | 1.0 | 4.0 | 0.00 | 0.00 | 0.00 | 29 | 1012.1 |
| 20260503192750 | 67 | 155 | 1.0 | 4.0 | 0.00 | 0.00 | 0.00 | 29 | 1012.1 |
| 20260503192243 | 68 | 113 | 1.0 | 3.0 | 0.00 | 0.00 | 0.00 | 28 | 1012.2 |
| 20260503191736 | 67 | 201 | 1.0 | 5.0 | 0.00 | 0.00 | 0.00 | 30 | 1012.2 |
| 20260503191233 | 67 | 5 | 1.0 | 5.0 | 0.00 | 0.00 | 0.00 | 29 | 1012.3 |
| 20260503190734 | 66 | 303 | 1.0 | 6.0 | 0.00 | 0.00 | 0.00 | 32 | 1012.4 |
| 20260503190233 | 65 | 187 | 2.0 | 6.0 | 0.00 | 0.00 | 0.00 | 29 | 1012.5 |
| 20260503185730 | 66 | 86 | 1.0 | 4.0 | 0.00 | 0.00 | 0.00 | 31 | 1012.6 |
| 20260503185230 | 66 | 229 | 1.0 | 5.0 | 0.00 | 0.00 | 0.00 | 32 | 1012.7 |
| 20260503184730 | 64 | 163 | 2.0 | 5.0 | 0.00 | 0.00 | 0.00 | 33 | 1012.7 |
| 20260503184230 | 64 | 32 | 2.0 | 5.0 | 0.00 | 0.00 | 0.00 | 31 | 1012.6 |
| 20260503183731 | 65 | 27 | 1.0 | 8.0 | 0.00 | 0.00 | 0.00 | 30 | 1012.7 |
| 20260503183231 | 65 | 196 | 1.0 | 8.0 | 0.00 | 0.00 | 0.00 | 31 | 1012.8 |
| 20260503182734 | 64 | 179 | 1.0 | 6.0 | 0.00 | 0.00 | 0.00 | 31 | 1012.8 |
| 20260503182228 | 64 | 63 | 2.0 | 6.0 | 0.00 | 0.00 | 0.00 | 30 | 1013.0 |
| 20260503181730 | 64 | 355 | 2.0 | 6.0 | 0.00 | 0.00 | 0.00 | 31 | 1013.0 |
| 20260503181229 | 64 | 158 | 1.0 | 6.0 | 0.00 | 0.00 | 0.00 | 33 | 1013.0 |
| 20260503180730 | 64 | 207 | 2.0 | 6.0 | 0.00 | 0.00 | 0.00 | 31 | 1013.1 |
| 20260503180230 | 64 | 28 | 2.0 | 6.0 | 0.00 | 0.00 | 0.00 | 31 | 1013.1 |
| 20260503175728 | 64 | 203 | 1.0 | 6.0 | 0.00 | 0.00 | 0.00 | 31 | 1013.2 |
| 20260503175228 | 64 | 108 | 1.0 | 5.0 | 0.00 | 0.00 | 0.00 | 32 | 1013.1 |
| 20260503174722 | 63 | 171 | 1.0 | 5.0 | 0.00 | 0.00 | 0.00 | 31 | 1013.1 |
| 20260503174220 | 64 | 232 | 1.0 | 7.0 | 0.00 | 0.00 | 0.00 | 34 | 1013.2 |
| 20260503173721 | 63 | 32 | 2.0 | 7.0 | 0.00 | 0.00 | 0.00 | 33 | 1013.0 |
| 20260503173450 | 63 | 167 | 2.0 | 5.0 | 0.00 | 0.00 | 0.00 | 33 | 1013.2 |
| 20260503172719 | 63 | 38 | 1.0 | 4.0 | 0.00 | 0.00 | 0.00 | 34 | 1013.3 |
| 20260503172218 | 63 | 52 | 1.0 | 5.0 | 0.00 | 0.00 | 0.00 | 33 | 1013.3 |
| 20260503171720 | 63 | 39 | 1.0 | 6.0 | 0.00 | 0.00 | 0.00 | 34 | 1013.5 |
| 20260503171218 | 62 | 30 | 2.0 | 7.0 | 0.00 | 0.00 | 0.00 | 34 | 1013.4 |
| 20260503170720 | 61 | 205 | 1.0 | 7.0 | 0.00 | 0.00 | 0.00 | 36 | 1013.5 |
| 20260503170220 | 62 | 206 | 1.0 | 7.0 | 0.00 | 0.00 | 0.00 | 33 | 1013.6 |
| 20260503150704 | 54 | 165 | 1.0 | 6.0 | 0.00 | 0.00 | 0.00 | 42 | 1014.4 |
| 20260503150205 | 53 | 87 | 1.0 | 6.0 | 0.00 | 0.00 | 0.00 | 41 | 1014.3 |
| 20260503140201 | 51 | 101 | 1.0 | 6.0 | 0.00 | 0.00 | 0.00 | 44 | 1014.3 |
| 20260503131323 | 48 | 30 | 2.0 | 6.0 | 0.00 | 0.00 | 0.00 | 57 | 1014.2 |
| 20260503130819 | 48 | 333 | 1.0 | 6.0 | 0.00 | 0.00 | 0.00 | 60 | 1014.2 |
| 20260503130311 | 48 | 90 | 1.0 | 7.0 | 0.00 | 0.00 | 0.00 | 65 | 1014.2 |
| 20260503110331 | 40 | 24 | 0.0 | 0.0 | 0.00 | 0.00 | 0.00 | 79 | 1013.2 |
| 20260503100219 | 42 | 24 | 0.0 | 0.0 | 0.00 | 0.00 | 0.00 | 72 | 1012.0 |
| 20260503090335 | 47 | 24 | 0.0 | 1.0 | 0.00 | 0.00 | 0.00 | 63 | 1011.3 |
| 20260503081525 | 48 | 39 | 0.0 | 1.0 | 0.00 | 0.00 | 0.00 | 62 | 1010.9 |
| 20260503081247 | 48 | 39 | 0.0 | 1.0 | 0.00 | 0.00 | 0.00 | 62 | 1010.9 |
| 20260503080522 | 48 | 38 | 0.0 | 1.0 | 0.00 | 0.00 | 0.00 | 61 | 1010.8 |